TITAN 3C TRANSTAGE DEB, 38694

Orbit data source: Space-Track

TITAN 3C TRANSTAGE DEB, 38694 is space debris in GEO originally from a launch on Thu, 26 Sep 1968 UTC launched from the Air Force Eastern Test Range (AFETR). Debris objects in space refer to the collection of defunct objects orbiting the Earth. Examples of debris include non-operational satellites, rocket bodies, and fragments generated from explosions, collisions, or faulty payload assembly.

Not visible in the next 10 days
Identifier
38694, 1968-081U
Orbit
GEO
Country
Flag of USUS
Related business
Manufacturer
Unknown
Mission
Spacecraft
Bus & Motor
Unknown
Mass
Unknown
Launch date (UTC)
1968-09-26 (58 years ago)
Launch vehicle
Unknown
Launch site
Air Force Eastern Test Range (AFETR)
Object type
Payload
Rocket body
Debris
Shape & HBR
Unknown shape, 1.1 m
Radar Cross Section
Medium (>0.1 m² and <1 m²)

Expand to show TLE details & history
Last TLE update: 5 months ago

TLE from 5 months ago
0 TITAN 3C TRANSTAGE DEB
1 38694U 68081U   26102.34978564 -.00000134  00000-0  00000-0 0  9999
2 38694   1.6808  69.1565 0083413  48.9686 312.1496  1.03485984 43383
Epoch: 2026-04-12T08:23Z
TLE epoch observation values (Epoch: 2026-04-12T08:23:41.479Z)
Latitude
Longitude
103.08266°
Altitude
34,680.218 km
Speed
3.124 km/s
True Right ascension
04h 38m 14s
True Declination
0° 00' 00"
Sunlit
Object was in daylight at epoch
Visualization orbit readout
Latitude
Unknown
Longitude
Unknown
Altitude
Unknown
Speed
Unknown
Apparent Right ascension
Unknown
Apparent Declination
Unknown
Sunlit
N/A
Visualization observer readout
Local Sidereal Time
03:24:09
Azimuth
Unknown
Elevation
Unknown
Doppler factor
Unknown
Orbital elements
Apogee altitude
35,254.429 km
Perigee altitude
34,565.635 km
Semi-major axis
41,288.169 km
Eccentricity
0.00834
Inclination
1.6808°
RAAN
69.1565°
Arg. of periapsis
48.9686°
True anomaly
311.43597°
Mean anomaly
312.1496°
Eccentric anomaly
311.79328°
Mean motion
0.2587 °/min
Orbital period
1,391.55 mins
BSTAR
0
Loading maneuver chart data...
Computing Atmospheric mass density...

Documentation

Showing up to 5 results
|